Siskiyou Pass Past Weather

Last 30 Days

High: 36ºf @1:54 PM    Low: 27ºf @6:54 AM     Approx. Precipitation / Rain Total: in.
Time (PST)Temp. (ºf)Humidity (%)Dew Point (ºf)Barometer (inHG)Wind Speed (mph)Wind DirectionWind Gust (mph)1hr. Precip / Rain Total (in.)Snow Depth
1:54 PM36231.84-4.34wnw18.25--
12:54 PM35230.99-5.21nw14.77--
11:54 AM36286.09-3.48wnw13.03--
10:54 AM33347.73-4.34wnw13.03--
9:54 AM324110.99-3.48nw13.03--
8:54 AM295012.72-2.61nw12.17--
7:54 AM276416.47-3.48nw10.43--
6:54 AM276617.18-2.61nw13.03--
5:54 AM296719.44-3.48nw13.03--
4:54 AM307422.74-2.61nw11.3--
3:54 AM318025.57-1.74n8.69--
2:54 AM318025.57-1.74nne6.95--
1:54 AM327725.62-1.74n6.95--
12:54 AM317524.02-2.61nw7.82--
High: 47ºf @1:54 PM    Low: 27ºf @10:54 PM     Approx. Precipitation / Rain Total: in.
Time (PST)Temp. (ºf)Humidity (%)Dew Point (ºf)Barometer (inHG)Wind Speed (mph)Wind DirectionWind Gust (mph)1hr. Precip / Rain Total (in.)Snow Depth
11:54 PM307523.05-0.87nnw7.82--
10:54 PM278422.82-0.87ne2.61--
9:54 PM317624.34-1.74nne5.21--
8:54 PM336823.61-1.74nne9.56--
7:54 PM366023.48-1.74nw7.82--
6:54 PM365320.55-1.74nw6.08--
5:54 PM374115.51-0.87nne4.34--
4:54 PM423516.36-0.87wnw9.56--
3:54 PM463620.56-3.48nw10.43--
2:54 PM463922.45-3.48nw13.9--
1:54 PM474023.94-5.21nw14.77--
12:54 PM464626.39-4.34wnw12.17--
11:54 AM445629.32-3.48nnw14.77--
10:54 AM406729.94-5.21nw16.51--
9:54 AM387330.13-2.61nnw10.43--
3:54 AM289125.72-0.87nne3.48--
2:54 AM309027.43-0.87nnw5.21--
1:54 AM318827.87-1.74nne6.08--
12:54 AM318928.15-2.61nne6.08--
High: 55ºf @11:54 AM    Low: 32ºf @8:54 AM     Approx. Precipitation / Rain Total: in.
Time (PST)Temp. (ºf)Humidity (%)Dew Point (ºf)Barometer (inHG)Wind Speed (mph)Wind DirectionWind Gust (mph)1hr. Precip / Rain Total (in.)Snow Depth
11:54 PM338328.41-1.74nne8.69--
10:54 PM338027.52-2.61ne6.08--
9:54 PM357628.21-1.74ne7.82--
8:54 PM367127.52-2.61ne12.17--
7:54 PM395925.9-3.48nw13.9--
6:54 PM395624.65-3.48nnw15.64--
5:54 PM406228.05-3.48nw12.17--
4:54 PM426129.54-3.48nnw18.25--
3:54 PM475431.23-4.34nw13.9--
2:54 PM495332.62-3.48nw13.03--
1:54 PM524631.87-6.08nnw15.64--
12:54 PM543929.61-4.34nw14.77--
11:54 AM553527.86-3.48nnw12.17--
10:54 AM445327.98-1.74wnw7.82--
9:54 AM444926.08-3.48wnw8.69--
8:54 AM328227.14-1.74ne4.34--
7:54 AM357226.9-1.74nne7.82--
6:54 AM386627.67-1.74wnw7.82--
5:54 AM357527.89-0.87nne6.08--
2:54 AM396227.1-1.74nne9.56--
1:54 AM406127.65-2.61nw11.3--
12:54 AM396327.49-2.61nnw10.43--
High: 56ºf @12:54 PM    Low: 25ºf @5:54 AM     Approx. Precipitation / Rain Total: in.
Time (PST)Temp. (ºf)Humidity (%)Dew Point (ºf)Barometer (inHG)Wind Speed (mph)Wind DirectionWind Gust (mph)1hr. Precip / Rain Total (in.)Snow Depth
11:54 PM386326.54-1.74ne6.08--
10:54 PM366926.83-0.87ne6.95--
9:54 PM415425.64-2.61nne7.82--
8:54 PM356825.52-1.74nw3.48--
7:54 PM357026.22---3.48--
6:54 PM386828.39---5.21--
5:54 PM445528.88-0.87ene8.69--
4:54 PM475129.82-2.61nw9.56--
3:54 PM524430.77-2.61wnw8.69--
2:54 PM543828.97-1.74wnw6.95--
1:54 PM554031.13-1.74wnw11.3--
12:54 PM563528.74-1.74wnw6.95--
11:54 AM543828.97-1.74wnw6.08--
10:54 AM514530.41-0.87wnw6.08--
9:54 AM445629.32-1.74nw6.08--
8:54 AM347928.18---3.48--
7:54 AM259022.49-1.74nne3.48--
6:54 AM268923.21-1.74nnw4.34--
5:54 AM259122.75-1.74ne3.48--
4:54 AM269123.74-1.74nne3.48--
3:54 AM279124.73---3.48--
2:54 AM279024.47-1.74ne3.48--
1:54 AM279124.73-0.87nne3.48--
12:54 AM289025.45-0.87nne3.48--
High: 51ºf @2:54 PM    Low: 29ºf @11:54 PM     Approx. Precipitation / Rain Total: in.
Time (PST)Temp. (ºf)Humidity (%)Dew Point (ºf)Barometer (inHG)Wind Speed (mph)Wind DirectionWind Gust (mph)1hr. Precip / Rain Total (in.)Snow Depth
11:54 PM298926.17-1.74ne4.34--
10:54 PM308726.61-0.87ne3.48--
9:54 PM308626.33-1.74ene4.34--
8:54 PM318527.03-1.74ne4.34--
7:54 PM338127.82-1.74nne5.21--
6:54 PM377228.83-1.74nne4.34--
5:54 PM425527.02-0.87nne7.82--
4:54 PM474325.68-2.61nne13.03--
3:54 PM504127.24-3.48n12.17--
2:54 PM513926.92-3.48n13.9--
1:54 PM513926.92-6.95nne15.64--
12:54 PM504026.64-5.21n15.64--
11:54 AM494327.49-4.34n11.3--
10:54 AM474627.31-3.48nnw13.9--
9:54 AM435025.65-4.34nne12.17--
8:54 AM405625.59-4.34n12.17--
7:54 AM346824.57-1.74n6.95--
6:54 AM327424.67---8.69--
5:54 AM356524.44-2.61nne8.69--
4:54 AM337224.98-1.74n10.43--
3:54 AM366425.02-3.48nne8.69--
2:54 AM376425.97-4.34ne12.17--
1:54 AM385924.96-2.61n8.69--
12:54 AM395725.07-1.74n8.69--
High: 55ºf @1:54 PM    Low: 26ºf @6:54 AM     Approx. Precipitation / Rain Total: in.
Time (PST)Temp. (ºf)Humidity (%)Dew Point (ºf)Barometer (inHG)Wind Speed (mph)Wind DirectionWind Gust (mph)1hr. Precip / Rain Total (in.)Snow Depth
11:54 PM405424.71-2.61nne7.82--
10:54 PM395423.78-2.61ne6.95--
9:54 PM415124.27-3.48ne6.08--
8:54 PM376225.21-2.61e6.08--
7:54 PM385924.96---3.48--
6:54 PM414923.32-1.74wnw12.17--
5:54 PM424522.22-2.61wnw8.69--
4:54 PM463117.08-1.74wnw6.08--
3:54 PM503019.8-1.74wnw9.56--
2:54 PM542317.05-2.61n11.3--
1:54 PM551711.01-4.34nne14.77--
12:54 PM552721.64-1.74nw8.69--
11:54 AM513725.65-1.74wnw7.82--
10:54 AM474124.53-3.48wnw8.69--
9:54 AM435226.59-1.74nw9.56--
8:54 AM386125.76-0.87ne3.48--
7:54 AM288323.52-0.87nnw3.48--
6:54 AM268421.84-0.87nne5.21--
5:54 AM288223.23-1.74ne5.21--
4:54 AM297923.32-0.87nnw3.48--
3:54 AM326822.65---4.34--
2:54 AM326822.65-0.87n6.08--
1:54 AM356022.54-1.74nw7.82--
12:54 AM355922.14-0.87nw9.56--
High: 46ºf @2:54 PM    Low: 28ºf @6:54 AM     Approx. Precipitation / Rain Total: in.
Time (PST)Temp. (ºf)Humidity (%)Dew Point (ºf)Barometer (inHG)Wind Speed (mph)Wind DirectionWind Gust (mph)1hr. Precip / Rain Total (in.)Snow Depth
11:54 PM385221.96-3.48n8.69--
10:54 PM375522.35-2.61nne9.56--
9:54 PM384920.56-3.48nne10.43--
8:54 PM385021.03-2.61n7.82--
7:54 PM375221.03-2.61ne6.95--
6:54 PM375221.03-1.74wnw9.56--
5:54 PM375221.03-1.74n13.9--
4:54 PM424120.03-1.74ene9.56--
3:54 PM453317.65-4.34nw10.43--
2:54 PM463016.32-4.34n13.03--
1:54 PM463217.81-5.21nne13.03--
12:54 PM443820.04-4.34n12.17--
11:54 AM404218.78-6.08n14.77--
10:54 AM384820.07-3.48nnw14.77--
9:54 AM355420.06-5.21nne13.9--
8:54 AM335619.04-4.34nne12.17--
7:54 AM305616.23-4.34n13.9--
6:54 AM286718.48-3.48ne13.03--
5:54 AM287521.12-2.61nne9.56--
4:54 AM287721.74-3.48n13.03--
3:54 AM297321.45-6.08nne15.64--
2:54 AM316520.63-6.95ne16.51--
1:54 AM307422.74-4.34ne13.9--
12:54 AM307623.37-6.08nne13.03--
High: 38ºf @1:54 PM    Low: 28ºf @7:54 AM     Approx. Precipitation / Rain Total: in.
Time (PST)Temp. (ºf)Humidity (%)Dew Point (ºf)Barometer (inHG)Wind Speed (mph)Wind DirectionWind Gust (mph)1hr. Precip / Rain Total (in.)Snow Depth
11:54 PM307322.41-4.34ne13.03--
10:54 PM317223.05-4.34ne14.77--
9:54 PM326621.95-3.48nne20.86--
8:54 PM326320.85-4.34nnw18.25--
7:54 PM345720.39-6.08nnw23.46--
6:54 PM346121.98-6.95n20.86--
5:54 PM355118.72-6.95nnw17.38--
4:54 PM365420.99-6.95n19.99--
3:54 PM375723.2-5.21nnw16.51--
2:54 PM375421.92-6.08nnw22.59--
1:54 PM385221.96-6.95nnw22.59--
12:54 PM384920.56-6.95n17.38--
11:54 AM365220.1-6.95n25.2--
10:54 AM346322.75-6.95n19.12--
9:54 AM307222.09-5.21nnw19.12--
8:54 AM297722.71-6.08nnw18.25--
7:54 AM287922.35-3.48nnw17.38--
6:54 AM307121.76-4.34nnw18.25--
5:54 AM307322.41-4.34nw18.25--
4:54 AM316922.04-6.08nw17.38--
3:54 AM317323.38-4.34nnw16.51--
2:54 AM328126.84-4.34nnw13.9--
1:54 AM337726.59-4.34nw14.77--
12:54 AM348028.49-5.21nw13.9--
High: 44ºf @1:54 PM    Low: 19ºf @7:54 AM     Approx. Precipitation / Rain Total: in.
Time (PST)Temp. (ºf)Humidity (%)Dew Point (ºf)Barometer (inHG)Wind Speed (mph)Wind DirectionWind Gust (mph)1hr. Precip / Rain Total (in.)Snow Depth
11:54 PM348028.49-2.61nw12.17--
10:54 PM367428.53-2.61nw13.03--
9:54 PM348028.49-1.74nw14.77--
8:54 PM347326.27-3.48wnw13.03--
7:54 PM327625.31-0.87e10.43--
6:54 PM347426.6-1.74wnw10.43--
5:54 PM356925.87-0.87nnw7.82--
4:54 PM385724.14-3.48nw10.43--
3:54 PM404821.91-4.34nw11.3--
2:54 PM434724.16-2.61nw8.69--
1:54 PM444725.08-1.74wnw9.56--
12:54 PM415325.2-2.61wnw10.43--
11:54 AM415626.52-1.74wnw9.56--
10:54 AM385824.55-3.48nw9.56--
9:54 AM327424.67-0.87nw7.82--
8:54 AM278222.25-0.87ese3.48--
7:54 AM199016.56-2.61ne4.34--
6:54 AM199016.56-2.61ne4.34--
5:54 AM198916.3-1.74ne4.34--
4:54 AM199016.56-1.74ene3.48--
3:54 AM209117.8-2.61ne4.34--
2:54 AM209117.8-0.87ne4.34--
1:54 AM219118.79-1.74ne4.34--
12:54 AM219219.05-2.61ne3.48--
High: 44ºf @1:54 PM    Low: 19ºf @7:54 AM     Approx. Precipitation / Rain Total: in.
Time (PST)Temp. (ºf)Humidity (%)Dew Point (ºf)Barometer (inHG)Wind Speed (mph)Wind DirectionWind Gust (mph)1hr. Precip / Rain Total (in.)Snow Depth
11:54 PM229220.04-2.61ne4.34--
10:54 PM239221.03-1.74ne3.48--
9:54 PM249322.28-0.87ne2.61--
8:54 PM259423.52-1.74ne2.61--
7:54 PM279224.99-0.87ne3.48--
6:54 PM289326.24-0.87ne2.61--
5:54 PM309027.43-0.87n6.08--
4:54 PM337726.59-1.74nw8.69--
3:54 PM386226.15-2.61nw6.95--
2:54 PM424622.74-0.87w3.48--
1:54 PM443719.42-0.87wsw4.34--
12:54 PM434322.05-0.87sw5.21--
11:54 AM415425.64-0.87w5.21--
10:54 AM395825.49-0.87w4.34--
9:54 AM346623.85-0.87sw3.48--
8:54 AM288122.94-0.87sse3.48--
7:54 AM199016.56-0.87nw3.48--
6:54 AM218918.28-0.87nne2.61--
5:54 AM248820.97-0.87ese2.61--
4:54 AM268822.94-1.74nnw6.08--
3:54 AM269424.52---5.21--
2:54 AM289526.76-1.74nw5.21--
1:54 AM289627.01-0.87wnw3.48--
12:54 AM289526.76---5.21--
High: 37ºf @11:54 AM    Low: 27ºf @6:54 AM     Approx. Precipitation / Rain Total: in.
Time (PST)Temp. (ºf)Humidity (%)Dew Point (ºf)Barometer (inHG)Wind Speed (mph)Wind DirectionWind Gust (mph)1hr. Precip / Rain Total (in.)Snow Depth
11:54 PM279626.01-0.87nw3.48--
10:54 PM279525.76---1.74--
9:54 PM289326.24---5.21--
8:54 PM308626.33-0.87nne6.08--
7:54 PM318527.03-1.74n7.82--
6:54 PM308425.76-4.34nne7.82--
5:54 PM308526.05-1.74nnw9.56--
4:54 PM317624.34-2.61nnw10.43--
3:54 PM347125.6-2.61nw8.69--
2:54 PM347526.92-3.48nnw13.03--
1:54 PM377028.14-2.61nnw10.43--
12:54 PM376927.79-3.48nw11.3--
11:54 AM377228.83-3.48nnw10.43--
10:54 AM367930.13-1.74nnw10.43--
9:54 AM358330.37-1.74n6.08--
8:54 AM299427.49-2.61nnw6.08--
7:54 AM279525.76-0.87nne7.82--
6:54 AM279525.76-1.74wnw10.43--
5:54 AM279626.01-3.48nw13.03--
4:54 AM279626.01-3.48wnw9.56--
3:54 AM279626.01-1.74nw8.69--
2:54 AM299628.01-2.61wnw9.56--
1:54 AM299728.26-1.74wnw8.69--
12:54 AM279626.01---7.82--
High: 36ºf @9:54 AM    Low: 24ºf @4:54 AM     Approx. Precipitation / Rain Total: in.
Time (PST)Temp. (ºf)Humidity (%)Dew Point (ºf)Barometer (inHG)Wind Speed (mph)Wind DirectionWind Gust (mph)1hr. Precip / Rain Total (in.)Snow Depth
11:54 PM269625.02-0.87nw4.34--
10:54 PM289627.01-0.87nnw6.08--
9:54 PM309729.25-1.74nw10.43--
8:54 PM319830.5-1.74wnw7.82--
7:54 PM299728.26------
6:54 PM319830.5---3.48--
5:54 PM329731.25-0.87se10.43--
4:54 PM329630.99-4.34e11.3--
3:54 PM329530.73-6.08ese15.64--
2:54 PM329630.99-6.08se14.77--
1:54 PM329630.99-5.21se12.17--
12:54 PM329630.99-4.34sse11.3--
11:54 AM329530.73-5.21se12.17--
10:54 AM338729.56-5.21se13.03--
9:54 AM367227.86-5.21se13.03--
8:54 AM329029.41-3.48se10.43--
7:54 AM269524.77-0.87ene2.61--
6:54 AM269524.77---2.61--
4:54 AM249522.78---1.74--
3:54 AM259523.77-0.87ne3.48--
2:54 AM259523.77-0.87ne3.48--
1:54 AM269524.77---2.61--
12:54 AM269524.77---1.74--
High: 43ºf @1:54 PM    Low: 27ºf @7:54 AM     Approx. Precipitation / Rain Total: in.
Time (PST)Temp. (ºf)Humidity (%)Dew Point (ºf)Barometer (inHG)Wind Speed (mph)Wind DirectionWind Gust (mph)1hr. Precip / Rain Total (in.)Snow Depth
11:54 PM279525.76-0.87ene2.61--
10:54 PM289627.01---2.61--
9:54 PM289526.76---3.48--
8:54 PM299527.75-1.74ne3.48--
7:54 PM309328.23---3.48--
6:54 PM318928.15---2.61--
5:54 PM338328.41-0.87ne2.61--
4:54 PM367227.86---6.95--
3:54 PM406027.25-0.87nw6.95--
2:54 PM425426.57-1.74nnw10.43--
1:54 PM435025.65-5.21n10.43--
12:54 PM425426.57-4.34nne10.43--
11:54 AM415927.78-3.48nnw11.3--
10:54 AM406428.82-2.61n8.69--
9:54 AM367127.52-0.87nnw6.08--
8:54 AM308526.05---3.48--
7:54 AM279124.73---4.34--
6:54 AM289025.45-1.74nne4.34--
5:54 AM299126.71---3.48--
4:54 AM308826.89-0.87n7.82--
3:54 AM308927.16---6.08--
2:54 AM318727.59-0.87nnw5.21--
1:54 AM308726.61-2.61n4.34--
12:54 AM318627.31-0.87nw5.21--
High: 39ºf @1:54 PM    Low: 29ºf @11:54 PM     Approx. Precipitation / Rain Total: in.
Time (PST)Temp. (ºf)Humidity (%)Dew Point (ºf)Barometer (inHG)Wind Speed (mph)Wind DirectionWind Gust (mph)1hr. Precip / Rain Total (in.)Snow Depth
11:54 PM299026.44-0.87ne4.34--
10:54 PM328026.54-1.74nw8.69--
9:54 PM337726.59-1.74nw11.3--
8:54 PM347225.94-3.48nw14.77--
7:54 PM347125.6-2.61nw14.77--
6:54 PM347225.94-3.48nnw13.03--
5:54 PM347827.88-2.61nnw11.3--
4:54 PM357628.21-3.48nw13.9--
3:54 PM376727.08-4.34nw15.64--
2:54 PM386828.39-6.08nw14.77--
1:54 PM396929.71-4.34nw16.51--
12:54 PM387029.1-5.21n16.51--
11:54 AM377630.15-2.61nnw15.64--
10:54 AM338228.12-4.34n12.17--
9:54 AM319329.22-3.48nw13.03--
8:54 AM319228.95-2.61nnw10.43--
7:54 AM319329.22-3.48nnw11.3--
6:54 AM319529.74-2.61n11.3--
5:54 AM319630-0.87nnw5.21--
4:54 AM309629---4.34--
3:54 AM309528.74---4.34--
2:54 AM309528.74---2.61--
1:54 AM319429.48---1.74--
12:54 AM319630---2.61--
High: 38ºf @10:54 AM    Low: 30ºf @7:54 PM     Approx. Precipitation / Rain Total: in.
Time (PST)Temp. (ºf)Humidity (%)Dew Point (ºf)Barometer (inHG)Wind Speed (mph)Wind DirectionWind Gust (mph)1hr. Precip / Rain Total (in.)Snow Depth
11:54 PM319830.5---2.61--
10:54 PM329831.5---2.61--
9:54 PM329831.5---1.74--
8:54 PM319830.5-0.87ne2.61--
7:54 PM309729.25---1.74--
6:54 PM329430.47---5.21--
5:54 PM349131.65-1.74se6.95--
4:54 PM359232.92-4.34se9.56--
3:54 PM368933.08-5.21se11.3--
2:54 PM379034.34-5.21se10.43--
1:54 PM349632.98-0.87se9.56--
12:54 PM369233.91-4.34sse13.9--
11:54 AM378833.78-6.95se14.77--
10:54 AM388734.48-7.82se14.77--
9:54 AM349332.19-5.21se11.3--
8:54 AM349432.46-5.21se10.43--
7:54 AM349432.46-6.08ese12.17--
6:54 AM349332.19-5.21se13.03--
5:54 AM349231.92-6.95se13.03--
4:54 AM349131.65-6.95ese13.03--
3:54 AM349332.19-8.69se17.38--
2:54 AM359232.92-7.82se13.9--
1:54 AM359032.37-6.95ese14.77--
12:54 AM358631.24-5.21se14.77--
High: 41ºf @1:54 PM    Low: 35ºf @9:54 AM     Approx. Precipitation / Rain Total: in.
Time (PST)Temp. (ºf)Humidity (%)Dew Point (ºf)Barometer (inHG)Wind Speed (mph)Wind DirectionWind Gust (mph)1hr. Precip / Rain Total (in.)Snow Depth
11:54 PM358731.53-5.21se12.17--
10:54 PM359132.64-5.21se11.3--
9:54 PM359333.18-4.34se9.56--
8:54 PM369133.63-3.48se12.17--
7:54 PM379234.9-6.08se9.56--
6:54 PM378934.06-4.34ese12.17--
5:54 PM388834.77-6.08se11.3--
4:54 PM388734.48-4.34se13.03--
3:54 PM408736.45-6.95se13.03--
2:54 PM409037.31-6.08ese12.17--
1:54 PM418938.01-6.08se14.77--
12:54 PM359433.45-6.08ese14.77--
11:54 AM389135.61-6.95se16.51--
10:54 AM389235.89-3.48sse14.77--
9:54 AM359333.18-5.21se17.38--
8:54 AM379134.62-6.95se18.25--
7:54 AM388935.05-9.56se19.99--
6:54 AM389135.61-6.95sse19.12--
5:54 AM399236.88-6.95se17.38--
4:54 AM409037.31-7.82se19.12--
3:54 AM399337.15-6.08se13.9--
2:54 AM399337.15-7.82se20.86--
1:54 AM399337.15-7.82ese15.64--
12:54 AM399337.15-6.95se15.64--
High: 42ºf @8:54 AM    Low: 33ºf @11:54 AM     Approx. Precipitation / Rain Total: in.
Time (PST)Temp. (ºf)Humidity (%)Dew Point (ºf)Barometer (inHG)Wind Speed (mph)Wind DirectionWind Gust (mph)1hr. Precip / Rain Total (in.)Snow Depth
11:54 PM399337.15-7.82ese12.17--
10:54 PM389235.89-6.08ese13.03--
9:54 PM389937.74-5.21ese12.17--
8:54 PM349833.5-0.87sse2.61--
7:54 PM359734.24---6.95--
6:54 PM379234.9-5.21ese11.3--
5:54 PM359834.49-1.74se8.69--
4:54 PM359734.24-0.87s6.08--
3:54 PM359734.24-1.74sse6.95--
2:54 PM359633.98-1.74s6.95--
1:54 PM359633.98-1.74s6.08--
12:54 PM349632.98-2.61sse6.95--
11:54 AM339631.99-0.87sse13.9--
10:54 AM349432.46-6.95ese13.03--
9:54 AM399236.88-5.21sse14.77--
8:54 AM428838.71-4.34se13.03--
7:54 AM428838.71-5.21se12.17--
6:54 AM418938.01-5.21se21.72--
5:54 AM428738.42-10.43se20.86--
4:54 AM419339.13-6.08se17.38--
3:54 AM419339.13-6.08se16.51--
2:54 AM428939-6.95se14.77--
1:54 AM428939-6.95se17.38--
12:54 AM429239.85-6.95se19.99--
High: 44ºf @11:54 PM    Low: 38ºf @2:54 AM     Approx. Precipitation / Rain Total: in.
Time (PST)Temp. (ºf)Humidity (%)Dew Point (ºf)Barometer (inHG)Wind Speed (mph)Wind DirectionWind Gust (mph)1hr. Precip / Rain Total (in.)Snow Depth
11:54 PM448940.97-6.08se20.86--
10:54 PM449041.26-7.82se19.99--
9:54 PM448740.38-7.82se19.99--
8:54 PM449141.54-9.56se18.25--
7:54 PM439441.39-6.95se22.59--
6:54 PM439240.84-10.43se21.72--
5:54 PM448640.09-8.69se27.81--
4:54 PM439040.27-7.82se18.25--
3:54 PM438939.98-8.69se17.38--
2:54 PM439240.84-8.69ese16.51--
1:54 PM439641.94-6.95se17.38--
12:54 PM429741.21-7.82se18.25--
11:54 AM429640.94-6.08se19.12--
10:54 AM429540.67-6.95se15.64--
9:54 AM429440.4-7.82se17.38--
8:54 AM429540.67-3.48sse15.64--
7:54 AM419238.86-8.69se16.51--
6:54 AM419138.58-6.08se19.12--
5:54 AM409338.14-10.43ese20.86--
4:54 AM409237.87-10.43ese19.99--
3:54 AM399437.42-9.56ese19.12--
2:54 AM389135.61-7.82se19.99--
1:54 AM398936.04-10.43ese20.86--
12:54 AM389235.89-8.69ese20.86--
High: 38ºf @9:54 PM    Low: 33ºf @3:54 PM     Approx. Precipitation / Rain Total: in.
Time (PST)Temp. (ºf)Humidity (%)Dew Point (ºf)Barometer (inHG)Wind Speed (mph)Wind DirectionWind Gust (mph)1hr. Precip / Rain Total (in.)Snow Depth
11:54 PM389035.33-11.3ese19.12--
10:54 PM388935.05-6.95se15.64--
9:54 PM389035.33-7.82se13.03--
8:54 PM349532.72-2.61sse12.17--
7:54 PM369033.36-5.21se17.38--
6:54 PM349733.24-3.48se9.56--
5:54 PM339631.99-2.61sse11.3--
4:54 PM339631.99-5.21se11.3--
3:54 PM339531.73-4.34sse10.43--
2:54 PM349532.72-3.48sse11.3--
1:54 PM369133.63-4.34sse15.64--
12:54 PM378833.78-8.69se16.51--
11:54 AM359333.18-4.34sse13.9--
10:54 AM369033.36-8.69se17.38--
9:54 AM359333.18-5.21se13.03--
8:54 AM339431.47-3.48sse12.17--
7:54 AM339631.99-2.61sse11.3--
6:54 AM349332.19-6.95se15.64--
5:54 AM359132.64-8.69ese18.25--
4:54 AM349332.19-6.95se17.38--
3:54 AM359333.18-8.69se17.38--
2:54 AM359333.18-8.69se18.25--
1:54 AM359032.37-6.95ese13.9--
12:54 AM359232.92-7.82se13.9--
High: 37ºf @12:54 PM    Low: 33ºf @10:54 AM     Approx. Precipitation / Rain Total: in.
Time (PST)Temp. (ºf)Humidity (%)Dew Point (ºf)Barometer (inHG)Wind Speed (mph)Wind DirectionWind Gust (mph)1hr. Precip / Rain Total (in.)Snow Depth
11:54 PM359333.18-8.69ese15.64--
10:54 PM359232.92-6.95ese15.64--
9:54 PM359333.18-6.95se19.12--
8:54 PM359232.92-7.82ese14.77--
7:54 PM359333.18-6.08se15.64--
6:54 PM369033.36-6.95se14.77--
5:54 PM359333.18-6.95se15.64--
4:54 PM369133.63-7.82se15.64--
3:54 PM369233.91-6.08se15.64--
2:54 PM378633.21-8.69ese19.12--
1:54 PM378833.78-9.56ese17.38--
12:54 PM378733.5-9.56ese18.25--
11:54 AM349632.98-6.08ese11.3--
10:54 AM339832.5-0.87s3.48--
9:54 AM349833.5------
8:54 AM339832.5------
5:54 AM349031.38-2.61ssw12.17--
4:54 AM358631.24-1.74sse10.43--
3:54 AM368130.75-3.48sse7.82--
2:54 AM349231.92-2.61sse6.08--
1:54 AM349332.19-0.87s5.21--
12:54 AM369133.63-1.74s6.95--
High: 48ºf @1:54 PM    Low: 34ºf @11:54 PM     Approx. Precipitation / Rain Total: in.
Time (PST)Temp. (ºf)Humidity (%)Dew Point (ºf)Barometer (inHG)Wind Speed (mph)Wind DirectionWind Gust (mph)1hr. Precip / Rain Total (in.)Snow Depth
11:54 PM349733.24-1.74sse4.34--
10:54 PM349733.24-0.87sse4.34--
9:54 PM349332.19-0.87ese9.56--
8:54 PM397732.41-5.21se9.56--
7:54 PM417433.36-5.21se11.3--
6:54 PM398033.36-1.74sse9.56--
5:54 PM417132.33-4.34se11.3--
4:54 PM417433.36-4.34ese10.43--
3:54 PM437234.6-4.34se9.56--
2:54 PM456835.08-5.21se11.3--
1:54 PM486135.2-3.48sse12.17--
12:54 PM477037.73-5.21se10.43--
11:54 AM477238.45-4.34sse13.03--
10:54 AM449041.26-2.61s9.56--
9:54 AM389737.23-0.87s5.21--
8:54 AM399738.22-2.61e7.82--
7:54 AM409638.95-3.48e6.95--
6:54 AM419339.13-4.34sse16.51--
5:54 AM399036.32-6.95se18.25--
4:54 AM389336.16-3.48sse18.25--
3:54 AM389235.89-5.21se17.38--
2:54 AM379134.62-9.56se24.33--
1:54 AM379034.34-10.43se21.72--
12:54 AM379134.62-6.95se14.77--
High: 41ºf @11:54 AM    Low: 32ºf @2:54 AM     Approx. Precipitation / Rain Total: in.
Time (PST)Temp. (ºf)Humidity (%)Dew Point (ºf)Barometer (inHG)Wind Speed (mph)Wind DirectionWind Gust (mph)1hr. Precip / Rain Total (in.)Snow Depth
11:54 PM399136.6-4.34sse17.38--
10:54 PM398635.17-11.3se19.99--
9:54 PM408134.65-11.3se20.86--
8:54 PM388734.48-9.56ese16.51--
7:54 PM388533.9-10.43ese19.12--
6:54 PM379234.9-8.69se17.38--
5:54 PM378733.5-7.82se14.77--
4:54 PM378833.78-6.95ese12.17--
3:54 PM369233.91-6.95se17.38--
2:54 PM389035.33-7.82se18.25--
1:54 PM398635.17-5.21sse14.77--
12:54 PM418135.62-6.08se15.64--
11:54 AM417935-6.08se13.03--
10:54 AM398434.58-6.95se13.9--
9:54 AM378833.78-6.95ese14.77--
8:54 AM359333.18-8.69se17.38--
7:54 AM359533.72-6.95se14.77--
6:54 AM349332.19-6.95se14.77--
5:54 AM339732.24---9.56--
4:54 AM349432.46-6.08se13.03--
3:54 AM339631.99-3.48ese9.56--
2:54 AM329831.5-3.48se9.56--
1:54 AM339732.24-6.95se13.9--
High: 37ºf @1:54 AM    Low: 32ºf @4:54 PM     Approx. Precipitation / Rain Total: in.
Time (PST)Temp. (ºf)Humidity (%)Dew Point (ºf)Barometer (inHG)Wind Speed (mph)Wind DirectionWind Gust (mph)1hr. Precip / Rain Total (in.)Snow Depth
11:54 PM339732.24-5.21se11.3--
10:54 PM339531.73-5.21se19.99--
9:54 PM349432.46-10.43ese20.86--
8:54 PM349532.72-6.08se15.64--
7:54 PM349432.46-7.82se14.77--
6:54 PM359333.18-9.56ese19.99--
5:54 PM339631.99-6.95se19.99--
4:54 PM329731.25-4.34se12.17--
3:54 PM349432.46-7.82se15.64--
2:54 PM339631.99-3.48se12.17--
1:54 PM349432.46-5.21se16.51--
12:54 PM349332.19-8.69ese16.51--
11:54 AM349532.72-6.95ese13.03--
10:54 AM349632.98-4.34se11.3--
9:54 AM359333.18-5.21se14.77--
8:54 AM339732.24-3.48se11.3--
7:54 AM349231.92-5.21se14.77--
6:54 AM349332.19-6.08se15.64--
5:54 AM349632.98-4.34se11.3--
4:54 AM339531.73-6.08se14.77--
3:54 AM349532.72-3.48sse14.77--
2:54 AM369233.91-6.95se18.25--
1:54 AM379034.34-7.82se15.64--
12:54 AM379635.97-2.61sse10.43--
High: 39ºf @11:54 AM    Low: 34ºf @2:54 AM     Approx. Precipitation / Rain Total: in.
Time (PST)Temp. (ºf)Humidity (%)Dew Point (ºf)Barometer (inHG)Wind Speed (mph)Wind DirectionWind Gust (mph)1hr. Precip / Rain Total (in.)Snow Depth
11:54 PM389737.23-3.48s14.77--
10:54 PM399537.69-6.95se13.9--
9:54 PM379736.23-4.34sse11.3--
8:54 PM379635.97-2.61sse14.77--
7:54 PM379535.7-2.61sse11.3--
6:54 PM369735.23-2.61s8.69--
5:54 PM369735.23-1.74s9.56--
4:54 PM379435.44-2.61sse12.17--
3:54 PM379435.44-2.61s15.64--
2:54 PM389235.89-2.61s15.64--
1:54 PM389135.61-5.21se15.64--
12:54 PM398635.17-6.95se15.64--
11:54 AM398936.04-4.34se13.9--
10:54 AM379435.44-3.48sse9.56--
9:54 AM369133.63-3.48sse15.64--
8:54 AM369133.63-7.82se13.9--
7:54 AM359333.18-6.08ese14.77--
6:54 AM359333.18-6.95se13.9--
5:54 AM359232.92-6.95se14.77--
4:54 AM359132.64-6.08ese12.17--
3:54 AM359132.64-6.08se12.17--
2:54 AM349231.92-5.21se11.3--
1:54 AM359433.45-5.21ese13.03--
12:54 AM359433.45-6.08se11.3--
High: 43ºf @10:54 AM    Low: 36ºf @11:54 PM     Approx. Precipitation / Rain Total: in.
Time (PST)Temp. (ºf)Humidity (%)Dew Point (ºf)Barometer (inHG)Wind Speed (mph)Wind DirectionWind Gust (mph)1hr. Precip / Rain Total (in.)Snow Depth
11:54 PM369534.71-4.34se10.43--
10:54 PM379435.44-3.48se9.56--
9:54 PM389837.49-4.34se8.69--
8:54 PM389837.49-2.61se6.08--
7:54 PM379635.97---6.95--
6:54 PM399337.15-3.48ese8.69--
5:54 PM409438.41-3.48se7.82--
4:54 PM409137.59-4.34ese14.77--
3:54 PM418938.01-6.08se13.9--
2:54 PM428939-8.69se15.64--
1:54 PM438939.98-6.95se16.51--
12:54 PM439341.12-6.95se13.03--
11:54 AM429239.85-7.82se14.77--
10:54 AM439240.84-5.21e13.9--
9:54 AM409137.59-6.08se17.38--
8:54 AM409338.14-7.82se18.25--
7:54 AM409538.69-6.95se16.51--
6:54 AM419138.58-9.56se20.86--
5:54 AM419138.58-7.82se17.38--
4:54 AM419138.58-8.69se19.12--
3:54 AM419138.58-8.69se19.99--
2:54 AM419439.41-5.21se14.77--
1:54 AM409739.22-3.48sse13.03--
12:54 AM409338.14-6.95se19.12--
High: 43ºf @7:54 PM    Low: 41ºf @6:54 PM     Approx. Precipitation / Rain Total: in.
Time (PST)Temp. (ºf)Humidity (%)Dew Point (ºf)Barometer (inHG)Wind Speed (mph)Wind DirectionWind Gust (mph)1hr. Precip / Rain Total (in.)Snow Depth
11:54 PM439441.39-4.34sse20.86--
10:54 PM439341.12-6.95sse21.72--
9:54 PM439240.84-8.69se20.86--
8:54 PM439441.39-6.08sse18.25--
7:54 PM439341.12-8.69sse19.99--
6:54 PM419539.68-6.08se16.51--
5:54 PM419539.68-5.21sse19.12--
Past Weather Disclaimer Note regarding "Approx. Precipitation / Rain Total"

Currently

Fair 35°F
29.93in
Barometer
24%
Humidity
Variable 4.6mph
Wind
Fair

Past Weather Nearby

More Local Information

Bookmark and Share